Change the Weather History Date:

Thursday, October 6, 2011

  Actual Average Record
Temperature  
Mean Temperature 68 °F -  
Max Temperature 80 °F 67 °F 89 °F (1997)
Min Temperature 57 °F 45 °F 26 °F (2000)
Cooling Degree Days 4    
Growing Degree Days 18 (Base 50)    
Moisture  
Dew Point 33 °F    
Average Humidity 30    
Maximum Humidity 51    
Minimum Humidity 12    
Precipitation  
Precipitation 0.00 in - - ()
Sea Level Pressure  
Sea Level Pressure 30.00 in    
Wind  
Wind Speed 13 mph (SE)    
Max Wind Speed 22 mph    
Max Gust Speed 32 mph    
Visibility 10 miles    
Events      
Averages and records for this station are not official NWS values.
T = Trace of Precipitation, MM = Missing Value Source: NWS Daily Summary

Daily Weather History Graph

Daily Weather History Graph

Search for Another Location

Airport or City:

Trip Planner

Search our weather history database for the weather conditions in past years. The results will help you decide how hot, cold, wet, or windy it might be!

Date:

Astronomy

Oct. 06, 2011 Rise Set
Actual Time 7:23 AM CDT 6:55 PM CDT
Civil Twilight 6:55 AM CDT 7:22 PM CDT
Nautical Twilight 6:23 AM CDT 7:55 PM CDT
Astronomical Twilight 5:50 AM CDT 8:27 PM CDT
Moon 4:13 PM CDT (10/6) 2:08 AM CDT (10/6)
Length of Visible Light 12h 27m
Length of Day
11h 31m
Waxing Gibbous, 75% of the Moon is Illuminated
Oct 6
Waxing Gibbous
Oct 11
Full
Oct 19
Last Quarter
Oct 26
New
Nov 2
First Quarter

Hourly Weather History & Observations

Time (CDT) Temp. Dew Point Humidity Pressure Visibility Wind Dir Wind Speed Gust Speed Precip Events Conditions
12:15 AM 62.6 °F 33.8 °F 34% 30.04 in 10.0 mi SE 10.4 mph - N/A   Clear
12:35 AM 62.6 °F 33.8 °F 34% 30.04 in 10.0 mi SE 11.5 mph - N/A   Clear
12:55 AM 62.6 °F 33.8 °F 34% 30.04 in 10.0 mi SSE 13.8 mph 19.6 mph N/A   Clear
1:15 AM 62.6 °F 33.8 °F 34% 30.04 in 10.0 mi SSE 12.7 mph 17.3 mph N/A   Clear
1:35 AM 60.8 °F 35.6 °F 39% 30.04 in 10.0 mi SE 11.5 mph 18.4 mph N/A   Clear
1:55 AM 60.8 °F 35.6 °F 39% 30.04 in 10.0 mi SE 10.4 mph - N/A   Clear
2:15 AM 60.8 °F 35.6 °F 39% 30.05 in 10.0 mi SSE 10.4 mph - N/A   Clear
2:35 AM 60.8 °F 35.6 °F 39% 30.05 in 10.0 mi SSE 11.5 mph 17.3 mph N/A   Clear
2:55 AM 60.8 °F 35.6 °F 39% 30.05 in 10.0 mi SSE 9.2 mph - N/A   Clear
3:15 AM 59.0 °F 37.4 °F 45% 30.05 in 10.0 mi SE 11.5 mph - N/A   Clear
3:35 AM 57.2 °F 37.4 °F 48% 30.04 in 10.0 mi SE 9.2 mph - N/A   Clear
4:15 AM 57.2 °F 37.4 °F 48% 30.04 in 10.0 mi SSE 11.5 mph 16.1 mph N/A   Clear
4:35 AM 59.0 °F 37.4 °F 45% 30.04 in 10.0 mi SE 12.7 mph 16.1 mph N/A   Clear
4:55 AM 57.2 °F 37.4 °F 48% 30.04 in 10.0 mi SE 10.4 mph 16.1 mph N/A   Clear
5:15 AM 57.2 °F 39.2 °F 51% 30.04 in 10.0 mi SE 11.5 mph 18.4 mph N/A   Clear
5:35 AM 57.2 °F 39.2 °F 51% 30.04 in 10.0 mi SSE 10.4 mph 16.1 mph N/A   Clear
6:15 AM 57.2 °F 39.2 °F 51% 30.04 in 10.0 mi SE 12.7 mph 18.4 mph N/A   Clear
6:35 AM 57.2 °F 39.2 °F 51% 30.04 in 10.0 mi SE 12.7 mph 18.4 mph N/A   Clear
7:15 AM 57.2 °F 39.2 °F 51% 30.03 in 10.0 mi SE 13.8 mph 19.6 mph N/A   Clear
7:35 AM 57.2 °F 39.2 °F 51% 30.04 in 10.0 mi SE 12.7 mph 20.7 mph N/A   Clear
7:55 AM 57.2 °F 39.2 °F 51% 30.04 in 10.0 mi SE 12.7 mph 18.4 mph N/A   Clear
8:15 AM 59.0 °F 39.2 °F 48% 30.04 in 10.0 mi SE 12.7 mph 18.4 mph N/A   Clear
8:55 AM 62.6 °F 39.2 °F 42% 30.05 in 10.0 mi SSE 13.8 mph 20.7 mph N/A   Clear
9:15 AM 62.6 °F 39.2 °F 42% 30.04 in 10.0 mi SSE 13.8 mph 21.9 mph N/A   Clear
9:35 AM 64.4 °F 37.4 °F 37% 30.05 in 10.0 mi SSE 15.0 mph 21.9 mph N/A   Clear
9:55 AM 66.2 °F 37.4 °F 35% 30.05 in 10.0 mi SSE 16.1 mph 23.0 mph N/A   Clear
10:55 AM 71.6 °F 33.8 °F 25% 30.04 in 10.0 mi SSE 15.0 mph 24.2 mph N/A   Clear
11:35 AM 75.2 °F 32.0 °F 21% 30.03 in 10.0 mi SSE 16.1 mph 24.2 mph N/A   Clear
11:55 AM 75.2 °F 32.0 °F 21% 30.03 in 10.0 mi SSE 9.2 mph 24.2 mph N/A   Clear
12:15 PM 75.2 °F 32.0 °F 21% 30.02 in 10.0 mi SSE 16.1 mph 20.7 mph N/A   Clear
12:35 PM 75.2 °F 30.2 °F 19% 30.01 in 10.0 mi SSE 15.0 mph 23.0 mph N/A   Clear
12:55 PM 73.4 °F 30.2 °F 20% 30.01 in 10.0 mi SSE 12.7 mph 21.9 mph N/A   Clear
1:15 PM 75.2 °F 30.2 °F 19% 30.00 in 10.0 mi SE 12.7 mph 24.2 mph N/A   Clear
1:35 PM 75.2 °F 30.2 °F 19% 29.99 in 10.0 mi SE 15.0 mph 27.6 mph N/A   Clear
1:55 PM 75.2 °F 30.2 °F 19% 29.99 in 10.0 mi SE 17.3 mph 25.3 mph N/A   Clear
2:15 PM 75.2 °F 30.2 °F 19% 29.98 in 10.0 mi SSE 18.4 mph 25.3 mph N/A   Clear
2:35 PM 78.8 °F 30.2 °F 17% 29.97 in 10.0 mi SE 18.4 mph 25.3 mph N/A   Clear
3:15 PM 80.6 °F 28.4 °F 15% 29.95 in 10.0 mi SSE 19.6 mph 32.2 mph N/A   Clear
3:35 PM 80.6 °F 30.2 °F 16% 29.95 in 10.0 mi SE 21.9 mph 28.8 mph N/A   Clear
3:55 PM 78.8 °F 30.2 °F 17% 29.95 in 10.0 mi SE 19.6 mph 28.8 mph N/A   Clear
4:35 PM 80.6 °F 30.2 °F 16% 29.93 in 10.0 mi SSE 20.7 mph 28.8 mph N/A   Clear
4:55 PM 80.6 °F 28.4 °F 15% 29.93 in 10.0 mi SSE 18.4 mph 32.2 mph N/A   Clear
5:15 PM 80.6 °F 23.0 °F 12% 29.93 in 10.0 mi SSE 20.7 mph 28.8 mph N/A   Clear
5:35 PM 80.6 °F 23.0 °F 12% 29.93 in 10.0 mi SSE 15.0 mph 32.2 mph N/A   Clear
5:55 PM 78.8 °F 23.0 °F 13% 29.93 in 10.0 mi SSE 17.3 mph 31.1 mph N/A   Clear
6:15 PM 78.8 °F 24.8 °F 14% 29.93 in 10.0 mi SSE 17.3 mph 25.3 mph N/A   Clear
6:35 PM 77.0 °F 26.6 °F 16% 29.93 in 10.0 mi SE 17.3 mph 23.0 mph N/A   Clear
6:55 PM 75.2 °F 26.6 °F 17% 29.93 in 10.0 mi SE 15.0 mph 21.9 mph N/A   Clear
7:15 PM 75.2 °F 28.4 °F 18% 29.93 in 10.0 mi SE 12.7 mph 19.6 mph N/A   Clear
7:35 PM 73.4 °F 28.4 °F 19% 29.93 in 10.0 mi SE 12.7 mph 18.4 mph N/A   Clear
7:55 PM 73.4 °F 30.2 °F 20% 29.94 in 10.0 mi SE 12.7 mph 18.4 mph N/A   Clear
8:15 PM 71.6 °F 30.2 °F 22% 29.94 in 10.0 mi SE 11.5 mph 17.3 mph N/A   Clear
8:35 PM 71.6 °F 30.2 °F 22% 29.94 in 10.0 mi SE 12.7 mph 23.0 mph N/A   Clear
9:35 PM 71.6 °F 32.0 °F 23% 29.94 in 10.0 mi SE 13.8 mph 23.0 mph N/A   Clear
9:55 PM 69.8 °F 33.8 °F 27% 29.95 in 10.0 mi SE 15.0 mph 21.9 mph N/A   Clear
10:15 PM 69.8 °F 33.8 °F 27% 29.95 in 10.0 mi SE 13.8 mph 23.0 mph N/A   Clear
10:35 PM 69.8 °F 33.8 °F 27% 29.95 in 10.0 mi SE 15.0 mph 19.6 mph N/A   Clear
10:55 PM 69.8 °F 35.6 °F 28% 29.95 in 10.0 mi SE 15.0 mph 20.7 mph N/A   Clear
11:15 PM 68.0 °F 35.6 °F 30% 29.95 in 10.0 mi SSE 16.1 mph 21.9 mph N/A   Clear
11:35 PM 69.8 °F 35.6 °F 28% 29.94 in 10.0 mi SSE 15.0 mph 23.0 mph N/A   Clear
11:55 PM 69.8 °F 35.6 °F 28% 29.93 in 10.0 mi SSE 18.4 mph 26.5 mph N/A   Clear